Regional Weather Roundup
Issued by NWS

Home | Current Version | Previous Version | Text Only | Print | Product List | Glossary Off
Versions: 1 2 3 4 5 6 7 8 9 10 11 12 13 14 15 16 17 18 19 20 21 22 23 24 25 26 27 28 29 30 31 32 33 34 35 36 37 38 39 40 41 42 43 44 45 46 47 48 49 50

000
ASUS43 KBIS 252010
RWRND
NORTH DAKOTA REGIONAL WEATHER ROUNDUP
NATIONAL WEATHER SERVICE EASTERN NORTH DAKOTA/GRAND FORKS ND
300 PM CDT SUN JUN 25 2017

  NOTE: "FAIR" INDICATES FEW OR NO CLOUDS BELOW 12,000 FEET WITH NO
  SIGNIFICANT WEATHER AND/OR OBSTRUCTIONS TO VISIBILITY.

NDZ001>003-009>011-017-252100-
...NORTHWEST NORTH DAKOTA...

CITY           SKY/WX    TMP DP  RH WIND       PRES   REMARKS
WILLISTON      PTSUNNY   73  45  36 N9        30.26S
MINOT          FAIR      70  44  39 N14G20    30.23S
MINOT AFB      PTSUNNY   66  42  41 NE8       30.23S
$$

NDZ018>021-031>035-040>046-252100-
...SOUTHWEST NORTH DAKOTA...

CITY           SKY/WX    TMP DP  RH WIND       PRES   REMARKS
BISMARCK       FAIR      66  49  54 W12       30.25F
DICKINSON      FAIR      72  34  24 N17G24    30.22F
GARRISON         N/A     64  43  46 VRB6      30.23S
HETTINGER      FAIR      74  35  24 VRB7      30.24F
$$

NDZ004>008-012>016-024-026-027-054-252100-
...NORTHEAST NORTH DAKOTA...

CITY           SKY/WX    TMP DP  RH WIND       PRES   REMARKS
GRAND FORKS    CLOUDY    65  44  46 N12       30.19F
GRAND FORKS AF FAIR      64  43  45 NW8       30.20F
DEVILS LAKE    CLOUDY    62  41  46 N14       30.23S
$$

NDZ022-023-025-028>030-036>039-047>053-252100-
...SOUTHEAST NORTH DAKOTA...

CITY           SKY/WX    TMP DP  RH WIND       PRES   REMARKS
JAMESTOWN      PTSUNNY   65  45  48 W14G20    30.20F
FARGO          PTSUNNY   70  41  34 N16G26    30.18F
WAHPETON       MOCLDY    66  37  34 N21       30.20S
$$



USA.gov is the U.S. government's official web portal to all federal, state and local government web resources and services.